period_start,C,m1,H,J0,J1,J2,J3,J4,J5,JA,JB,JC,JD,JJ,JK,JN,#
2016-09-27 00:00:28,0.00,0.63,0.00,22.36,28.17,31.53,14.44,47.41,1001.97,2031.99,3271.01,2957.00,3352.00,599.99,588.61,19.18,0000 0000 0000 0000 000000
2016-09-27 00:05:29,0.00,0.63,0.00,22.44,28.17,31.55,14.41,47.40,1001.97,2031.99,3271.00,2957.00,3351.99,599.93,588.42,19.23,0000 0000 0000 0000 000000
2016-09-27 00:10:30,0.00,0.63,0.00,22.41,28.18,31.57,14.50,47.33,1001.97,2031.99,3271.00,2956.98,3351.97,600.06,588.71,19.28,0000 0000 0000 0000 000000
2016-09-27 00:15:31,0.01,0.63,0.00,22.40,28.19,31.57,14.45,47.29,1001.99,2031.99,3270.84,2956.82,3351.67,600.20,588.85,19.33,0000 0000 0000 0000 000000
2016-09-27 00:20:32,0.03,0.63,0.00,22.41,28.20,31.57,14.42,47.40,1001.99,2031.99,3270.35,2956.21,3351.06,599.74,588.47,19.38,0000 0000 0000 0000 000000
2016-09-27 00:25:34,0.00,0.63,0.00,22.40,28.20,31.58,14.48,47.26,1001.99,2031.96,3270.08,2956.06,3351.00,600.34,588.99,19.43,0000 0000 0000 0000 000000
2016-09-27 00:30:35,-0.00,0.63,0.00,22.43,28.20,31.56,14.43,47.30,1001.97,2031.92,3270.02,2956.01,3351.00,600.11,588.62,19.48,0000 0000 0000 0000 000000
2016-09-27 00:35:36,-0.00,0.63,0.00,22.48,28.21,31.59,14.41,47.28,1001.98,2031.89,3270.01,2956.00,3350.99,600.14,588.62,19.53,0000 0000 0000 0000 000000
2016-09-27 00:40:37,-0.00,0.63,0.00,22.52,28.22,31.61,14.43,47.38,1001.98,2031.86,3270.00,2956.00,3350.98,599.87,588.30,19.58,0000 0000 0000 0000 000000
2016-09-27 00:45:39,-0.03,0.63,0.00,22.51,28.22,31.62,14.45,47.31,1001.97,2031.51,3270.00,2956.00,3350.94,599.90,588.29,19.63,0000 0000 0000 0000 000000
2016-09-27 00:50:40,-0.02,0.63,0.00,22.48,28.24,31.62,14.42,47.34,1001.97,2031.29,3270.00,2956.00,3350.82,599.85,588.29,19.68,0000 0000 0000 0000 000000
2016-09-27 00:55:41,0.01,0.63,0.00,22.48,28.25,31.65,14.37,47.48,1001.97,2031.33,3269.95,2955.99,3350.57,600.02,588.57,19.73,0000 0000 0000 0000 000000
2016-09-27 01:00:43,-0.00,0.63,0.00,22.53,28.25,31.67,14.44,47.41,1001.99,2031.14,3269.63,2955.96,3350.10,599.97,588.27,19.78,0000 0000 0000 0000 000000
2016-09-27 01:05:44,0.00,0.63,0.00,22.60,28.27,31.67,14.37,47.43,1002.09,2031.13,3269.60,2955.92,3350.01,599.42,587.71,19.83,0000 0000 0000 0000 000000
2016-09-27 01:10:45,0.00,0.63,0.00,22.66,28.27,31.68,14.42,47.31,1002.18,2031.09,3269.57,2955.86,3350.02,599.78,587.96,19.88,0000 0000 0000 0000 000000
2016-09-27 01:15:47,0.01,0.63,0.00,22.61,28.29,31.71,14.50,47.29,1002.21,2031.05,3269.24,2955.64,3350.00,600.25,588.54,19.93,0000 0000 0000 0000 000000
2016-09-27 01:20:48,0.01,0.63,0.00,22.61,28.30,31.71,14.46,47.31,1002.01,2031.01,3269.04,2955.22,3350.00,599.70,588.07,19.98,0000 0000 0000 0000 000000
2016-09-27 01:25:49,0.01,0.63,0.00,22.62,28.31,31.74,14.40,47.36,1002.11,2031.01,3268.99,2955.02,3349.96,600.07,588.36,20.03,0000 0000 0000 0000 000000
2016-09-27 01:30:51,0.00,0.63,0.00,22.60,28.32,31.73,14.40,47.28,1002.30,2031.00,3268.88,2955.00,3349.71,599.83,588.33,20.08,0000 0000 0000 0000 000000
2016-09-27 01:35:52,0.01,0.63,0.00,22.64,28.34,31.79,14.41,47.23,1002.44,2031.00,3268.45,2954.99,3349.20,599.85,588.24,20.13,0000 0000 0000 0000 000000
2016-09-27 01:40:53,0.00,0.63,0.00,22.64,28.35,31.79,14.45,47.33,1002.46,2031.00,3268.09,2954.98,3349.02,599.82,588.27,20.18,0000 0000 0000 0000 000000
2016-09-27 01:45:55,0.01,0.63,0.00,22.73,28.37,31.80,14.37,47.27,1002.46,2031.00,3267.98,2954.61,3349.00,599.76,587.92,20.23,0000 0000 0000 0000 000000
2016-09-27 01:50:56,0.01,0.63,0.00,22.73,28.38,31.80,14.39,47.27,1002.47,2031.00,3267.58,2954.03,3348.97,599.81,588.11,20.28,0000 0000 0000 0000 000000
2016-09-27 01:55:57,0.00,0.63,0.00,22.72,28.40,31.85,14.47,47.41,1002.48,2031.00,3267.67,2954.00,3348.82,600.03,588.49,20.33,0000 0000 0000 0000 000000
2016-09-27 02:00:58,0.01,0.63,0.00,22.76,28.42,31.87,14.43,47.42,1002.70,2031.00,3267.59,2954.00,3348.32,599.98,588.36,20.38,0000 0000 0000 0000 000000
2016-09-27 02:06:00,0.01,0.63,0.00,22.82,28.43,31.88,14.41,47.38,1002.89,2031.00,3267.09,2954.00,3348.04,599.75,588.15,20.43,0000 0000 0000 0000 000000
2016-09-27 02:11:01,0.00,0.63,0.00,22.89,28.45,31.90,14.45,47.36,1002.92,2031.00,3267.20,2953.98,3348.00,600.01,588.24,20.48,0000 0000 0000 0000 000000
2016-09-27 02:16:02,-0.00,0.63,0.00,22.93,28.47,31.92,14.41,47.39,1002.94,2030.96,3267.05,2953.94,3348.00,599.67,587.83,20.53,0000 0000 0000 0000 000000
2016-09-27 02:21:04,0.00,0.63,0.00,23.16,28.50,31.78,14.41,47.28,1002.96,2030.91,3267.03,2953.79,3347.98,600.18,587.89,20.58,0000 0000 0000 0000 000000
2016-09-27 02:26:05,-0.03,0.63,0.00,23.55,28.52,31.67,14.38,47.20,1003.03,2030.57,3267.03,2953.45,3347.90,600.06,586.97,20.63,0000 0000 0000 0000 000000
2016-09-27 02:31:06,-0.01,0.63,0.00,23.74,28.56,31.71,14.35,47.12,1003.33,2030.14,3267.02,2953.10,3347.43,600.02,586.80,20.68,0000 0000 0000 0000 000000
2016-09-27 02:36:07,0.00,0.63,0.00,23.88,28.59,31.73,14.33,47.21,1003.43,2030.02,3267.00,2953.01,3347.04,600.22,586.71,20.73,0000 0000 0000 0000 000000
2016-09-27 02:41:09,0.00,0.63,0.00,23.91,28.63,31.76,14.31,47.14,1003.43,2030.00,3267.00,2953.00,3347.00,599.95,586.37,20.78,0000 0000 0000 0000 000000
2016-09-27 02:46:10,0.00,0.63,0.00,23.97,28.66,31.81,14.39,47.13,1003.43,2030.00,3266.93,2952.96,3346.95,600.33,586.66,20.83,0000 0000 0000 0000 000000
2016-09-27 02:51:12,0.01,0.63,0.00,24.01,28.70,31.82,14.28,46.95,1003.46,2029.98,3266.91,2952.86,3346.63,600.01,586.32,20.88,0000 0000 0000 0000 000000
2016-09-27 02:56:13,0.02,0.63,0.00,24.05,28.73,31.84,14.36,47.03,1003.50,2029.82,3266.56,2952.35,3346.15,600.20,586.38,20.93,0000 0000 0000 0000 000000
2016-09-27 03:01:14,-0.05,0.63,0.00,24.09,28.76,31.86,14.31,47.02,1003.73,2029.30,3266.06,2952.04,3346.02,600.33,586.65,20.98,0000 0000 0000 0000 000000
2016-09-27 03:06:15,-0.01,0.63,0.00,24.13,28.79,31.90,14.30,46.94,1003.90,2029.02,3266.00,2952.00,3345.98,600.29,586.60,21.03,0000 0000 0000 0000 000000
2016-09-27 03:11:16,0.00,0.63,0.00,24.14,28.82,31.91,14.30,46.98,1003.92,2029.00,3266.00,2951.99,3345.85,599.96,586.40,21.08,0000 0000 0000 0000 000000
2016-09-27 03:16:18,0.01,0.63,0.00,24.14,28.84,31.91,14.38,47.03,1003.92,2029.00,3265.99,2951.92,3345.23,599.81,586.16,21.13,0000 0000 0000 0000 000000
2016-09-27 03:21:19,0.01,0.63,0.00,24.17,28.86,31.89,14.25,46.97,1003.94,2028.99,3265.97,2951.66,3345.02,599.92,586.12,21.18,0000 0000 0000 0000 000000
2016-09-27 03:26:20,0.02,0.63,0.00,24.18,28.87,31.88,14.29,47.06,1003.94,2028.94,3265.61,2951.12,3345.00,599.80,586.08,21.23,0000 0000 0000 0000 000000
2016-09-27 03:31:22,-0.00,0.63,0.00,24.21,28.90,31.93,14.32,46.97,1004.08,2028.90,3265.32,2951.04,3345.00,600.21,586.44,21.28,0000 0000 0000 0000 000000
2016-09-27 03:36:23,-0.02,0.63,0.00,24.25,28.90,31.93,14.23,46.94,1004.35,2028.65,3265.11,2951.00,3344.98,599.62,586.06,21.33,0000 0000 0000 0000 000000
2016-09-27 03:41:24,-0.02,0.63,0.00,24.28,28.92,31.96,14.26,46.95,1004.39,2028.28,3265.01,2951.00,3344.88,599.95,586.28,21.38,0000 0000 0000 0000 000000
2016-09-27 03:46:25,-0.01,0.63,0.00,24.29,28.92,31.92,14.26,47.02,1004.40,2028.15,3265.00,2951.00,3344.84,599.97,586.41,21.43,0000 0000 0000 0000 000000
2016-09-27 03:51:26,0.00,0.63,0.00,24.29,28.94,31.91,14.34,46.93,1004.41,2028.11,3265.00,2951.00,3344.44,599.82,586.06,21.48,0000 0000 0000 0000 000000
2016-09-27 03:56:28,-0.00,0.63,0.00,24.28,28.95,31.92,14.33,47.01,1004.41,2028.05,3265.00,2950.98,3344.14,600.27,586.55,21.53,0000 0000 0000 0000 000000
2016-09-27 04:01:28,-0.00,0.63,0.00,24.32,28.95,31.91,14.33,47.04,1004.41,2028.02,3265.00,2950.98,3344.12,599.89,586.23,21.58,0000 0000 0000 0000 000000
2016-09-27 04:06:30,0.00,0.63,0.00,24.31,28.95,31.90,14.24,46.99,1004.41,2028.01,3265.00,2950.95,3344.02,599.98,586.35,21.63,0000 0000 0000 0000 000000
2016-09-27 04:11:31,0.00,0.63,0.00,24.34,28.95,31.95,14.29,46.88,1004.41,2028.00,3265.00,2950.94,3344.01,600.22,586.46,21.68,0000 0000 0000 0000 000000
2016-09-27 04:16:32,0.00,0.63,0.00,24.33,28.96,31.91,14.31,46.92,1004.41,2028.01,3264.97,2950.87,3344.00,599.93,586.18,21.74,0000 0000 0000 0000 000000
2016-09-27 04:21:34,0.00,0.63,0.00,24.36,28.97,31.99,14.31,47.02,1004.41,2028.00,3264.93,2950.65,3344.00,600.13,586.35,21.79,0000 0000 0000 0000 000000
2016-09-27 04:26:35,-0.01,0.63,0.00,24.36,28.97,31.95,14.29,46.97,1004.42,2028.00,3264.97,2950.81,3344.00,599.79,586.00,21.84,0000 0000 0000 0000 000000
2016-09-27 04:31:36,0.01,0.63,0.00,24.39,28.97,31.94,14.36,46.96,1004.43,2028.00,3264.94,2950.59,3344.00,600.38,586.37,21.89,0000 0000 0000 0000 000000
2016-09-27 04:36:37,0.00,0.63,0.00,24.39,28.97,31.97,14.20,46.98,1004.44,2028.00,3264.81,2950.47,3344.00,599.43,585.53,21.94,0000 0000 0000 0000 000000
2016-09-27 04:41:38,0.02,0.63,0.00,24.41,28.97,31.95,14.27,47.03,1004.47,2028.00,3264.31,2950.22,3344.00,599.88,585.94,21.99,0000 0000 0000 0000 000000
2016-09-27 04:46:40,0.00,0.63,0.00,24.44,28.96,31.94,14.34,47.00,1004.55,2028.00,3264.15,2950.23,3344.00,600.43,586.58,22.04,0000 0000 0000 0000 000000
2016-09-27 04:51:41,0.00,0.63,0.00,24.45,28.95,31.97,14.25,46.99,1004.58,2028.01,3264.09,2950.22,3344.00,600.07,586.12,22.09,0000 0000 0000 0000 000000
2016-09-27 04:56:42,-0.00,0.63,0.00,24.48,28.95,31.93,14.35,46.97,1004.67,2028.02,3264.08,2950.19,3344.00,600.38,586.41,22.14,0000 0000 0000 0000 000000
2016-09-27 05:01:43,0.00,0.63,0.00,24.48,28.95,31.93,14.30,47.01,1004.80,2028.03,3264.03,2950.16,3344.00,600.44,586.58,22.19,0000 0000 0000 0000 000000
2016-09-27 05:06:44,-0.00,0.63,0.00,24.51,28.95,31.91,14.23,47.04,1004.86,2028.03,3264.01,2950.12,3343.99,599.89,586.05,22.24,0000 0000 0000 0000 000000
2016-09-27 05:11:46,0.00,0.63,0.00,24.54,28.95,31.91,14.24,46.98,1004.88,2028.07,3264.00,2950.13,3343.99,599.87,586.07,22.29,0000 0000 0000 0000 000000
2016-09-27 05:16:47,0.03,0.63,0.00,24.53,28.94,31.96,14.31,47.05,1004.90,2028.37,3264.00,2950.19,3343.99,599.88,586.03,22.34,0000 0000 0000 0000 000000
2016-09-27 05:21:48,-0.02,0.63,0.00,24.54,28.92,31.88,14.22,47.02,1004.90,2028.21,3264.00,2950.13,3343.99,599.62,585.68,22.39,0000 0000 0000 0000 000000
2016-09-27 05:26:50,0.01,0.63,0.00,24.56,28.92,31.88,14.26,46.83,1004.90,2028.30,3264.00,2950.24,3343.99,600.07,586.15,22.44,0000 0000 0000 0000 000000
2016-09-27 05:31:51,0.03,0.63,0.00,24.56,28.92,31.86,14.34,46.93,1004.90,2028.67,3264.00,2950.29,3343.99,600.34,586.37,22.49,0000 0000 0000 0000 000000
2016-09-27 05:36:52,-0.01,0.63,0.00,24.61,28.91,31.89,14.25,46.88,1004.90,2028.59,3264.00,2950.18,3343.99,599.47,585.42,22.54,0000 0000 0000 0000 000000
2016-09-27 05:41:53,-0.00,0.63,0.00,24.60,28.90,31.84,14.22,46.85,1004.90,2028.64,3264.00,2950.32,3343.99,599.85,585.85,22.59,0000 0000 0000 0000 000000
2016-09-27 05:46:55,0.01,0.63,0.00,24.61,28.90,31.85,14.26,46.88,1004.90,2028.73,3264.00,2950.26,3343.98,600.00,586.03,22.64,0000 0000 0000 0000 000000
2016-09-27 05:51:56,0.03,0.63,0.00,24.61,28.90,31.84,14.32,46.91,1004.94,2028.78,3263.67,2950.07,3343.70,600.07,586.03,22.69,0000 0000 0000 0000 000000
2016-09-27 05:56:57,0.01,0.64,0.00,24.65,28.89,31.86,14.27,46.83,1004.96,2028.74,3263.05,2950.00,3343.13,600.32,586.32,22.74,0000 0000 0000 0000 000000
2016-09-27 06:01:58,0.02,0.64,0.00,24.65,28.87,31.80,14.21,46.94,1005.04,2028.88,3262.98,2949.96,3343.01,599.94,585.88,22.79,0000 0000 0000 0000 000000
2016-09-27 06:07:00,0.07,0.64,0.00,24.67,28.87,31.84,14.25,46.93,1005.10,2028.94,3261.84,2949.23,3342.56,599.82,585.81,22.84,0000 0000 0000 0000 000000
2016-09-27 06:12:01,0.05,0.64,0.00,24.68,28.87,31.78,14.25,46.90,1005.20,2028.96,3260.32,2948.11,3341.69,600.38,586.39,22.89,0000 0000 0000 0000 000000
2016-09-27 06:17:02,0.01,0.64,0.00,24.65,28.85,31.78,14.27,46.96,1005.32,2028.98,3259.99,2948.00,3341.11,599.88,586.03,22.94,0000 0000 0000 0000 000000
2016-09-27 06:22:03,0.02,0.64,0.00,24.66,28.85,31.74,14.29,46.97,1005.39,2028.98,3259.23,2947.92,3340.99,600.23,586.28,22.99,0000 0000 0000 0000 000000
2016-09-27 06:27:05,0.04,0.64,0.00,24.66,28.84,31.78,14.24,46.88,1005.39,2028.99,3258.75,2947.49,3340.63,599.95,586.19,23.04,0000 0000 0000 0000 000000
2016-09-27 06:32:06,0.02,0.65,0.00,24.68,28.82,31.73,14.27,46.89,1005.39,2028.99,3257.68,2947.01,3340.02,600.23,586.42,23.09,0000 0000 0000 0000 000000
2016-09-27 06:37:07,-0.00,0.65,0.00,24.67,28.82,31.73,14.29,46.92,1005.39,2028.99,3257.43,2947.00,3340.00,600.29,586.35,23.14,0000 0000 0000 0000 000000
2016-09-27 06:42:08,0.00,0.65,0.00,24.69,28.82,31.71,14.22,46.89,1005.40,2028.99,3257.17,2947.00,3340.00,599.61,585.73,23.19,0000 0000 0000 0000 000000
2016-09-27 06:47:10,0.00,0.65,0.00,24.71,28.80,31.71,14.22,46.91,1005.41,2029.00,3257.01,2946.99,3340.00,599.70,585.74,23.24,0000 0000 0000 0000 000000
2016-09-27 06:52:11,0.00,0.65,0.00,24.70,28.80,31.70,14.28,46.86,1005.42,2029.01,3257.03,2946.99,3340.00,599.96,586.10,23.29,0000 0000 0000 0000 000000
2016-09-27 06:57:12,0.00,0.65,0.00,24.72,28.80,31.69,14.18,46.98,1005.41,2029.01,3257.04,2946.99,3340.00,599.96,586.05,23.34,0000 0000 0000 0000 000000
2016-09-27 07:02:14,0.00,0.65,0.00,24.73,28.79,31.72,14.22,47.04,1005.45,2029.01,3257.02,2946.99,3340.00,599.69,585.77,23.39,0000 0000 0000 0000 000000
2016-09-27 07:07:15,0.00,0.65,0.00,24.72,28.77,31.66,14.31,46.89,1005.65,2029.02,3257.00,2946.98,3340.00,599.94,586.24,23.44,0000 0000 0000 0000 000000
2016-09-27 07:12:16,0.01,0.65,0.00,24.73,28.77,31.68,14.29,46.88,1005.82,2029.03,3257.00,2946.97,3339.99,599.82,586.07,23.49,0000 0000 0000 0000 000000
2016-09-27 07:17:18,0.00,0.65,0.00,24.73,28.77,31.66,14.27,46.88,1005.87,2029.05,3257.00,2946.97,3339.99,600.12,586.44,23.54,0000 0000 0000 0000 000000
2016-09-27 07:22:19,0.01,0.65,0.00,24.73,28.76,31.67,14.26,46.85,1005.87,2029.12,3257.00,2946.98,3339.98,600.24,586.56,23.59,0000 0000 0000 0000 000000
2016-09-27 07:27:20,-0.01,0.65,0.00,24.74,28.75,31.68,14.26,46.92,1005.87,2029.13,3256.98,2946.97,3339.97,600.15,586.46,23.64,0000 0000 0000 0000 000000
2016-09-27 07:32:22,0.01,0.65,0.00,24.74,28.75,31.64,14.31,46.93,1005.87,2029.22,3256.99,2946.93,3339.97,600.15,586.44,23.69,0000 0000 0000 0000 000000
2016-09-27 07:37:23,0.02,0.65,0.00,24.75,28.75,31.65,14.26,46.94,1005.87,2029.45,3256.98,2946.98,3339.98,599.96,586.25,23.74,0000 0000 0000 0000 000000
2016-09-27 07:42:24,0.03,0.65,0.00,24.74,28.73,31.63,14.28,46.95,1005.87,2029.67,3256.71,2946.73,3339.87,600.05,586.34,23.79,0000 0000 0000 0000 000000
2016-09-27 07:47:25,0.04,0.65,0.00,24.75,28.72,31.66,14.33,46.98,1005.87,2029.89,3256.16,2946.35,3339.58,600.46,586.66,23.84,0000 0000 0000 0000 000000
2016-09-27 07:52:27,-0.00,0.65,0.00,24.75,28.72,31.63,14.23,47.04,1005.87,2029.95,3256.22,2946.34,3339.51,599.79,586.12,23.89,0000 0000 0000 0000 000000
2016-09-27 07:57:28,0.01,0.65,0.00,24.75,28.72,31.63,14.24,46.92,1005.87,2029.96,3256.17,2946.24,3339.35,599.89,586.20,23.94,0000 0000 0000 0000 000000
2016-09-27 08:02:29,0.00,0.66,0.00,24.75,28.71,31.59,14.22,46.88,1005.87,2029.95,3256.09,2946.13,3339.19,599.78,586.05,23.99,0000 0000 0000 0000 000000
2016-09-27 08:07:30,0.01,0.66,0.00,24.73,28.70,31.61,14.26,46.90,1005.89,2029.98,3256.01,2946.05,3339.06,600.16,586.37,24.04,0000 0000 0000 0000 000000
2016-09-27 08:12:32,0.02,0.66,0.00,24.73,28.70,31.60,14.25,46.83,1005.91,2029.97,3255.37,2945.89,3338.83,599.89,586.25,24.09,0000 0000 0000 0000 000000
2016-09-27 08:17:33,0.05,0.66,0.00,24.76,28.70,31.59,14.35,46.88,1005.96,2029.97,3254.10,2945.08,3338.05,600.24,586.51,24.14,0000 0000 0000 0000 000000
2016-09-27 08:22:34,0.00,0.66,0.00,24.74,28.70,31.59,14.32,46.93,1006.06,2029.99,3253.98,2945.00,3338.00,600.09,586.52,24.19,0000 0000 0000 0000 000000
2016-09-27 08:27:36,0.00,0.66,0.00,24.76,28.69,31.57,14.24,46.84,1006.25,2029.99,3253.97,2945.00,3338.00,599.93,586.35,24.24,0000 0000 0000 0000 000000
2016-09-27 08:32:37,0.00,0.66,0.00,24.74,28.67,31.58,14.30,46.80,1006.34,2029.99,3253.73,2945.00,3337.99,599.91,586.54,24.29,0000 0000 0000 0000 000000
2016-09-27 08:37:38,0.06,0.66,0.00,24.71,28.67,31.58,14.24,46.94,1006.36,2029.99,3252.74,2944.45,3337.25,600.26,586.90,24.34,0000 0000 0000 0000 000000
2016-09-27 08:42:39,0.05,0.66,0.00,24.74,28.67,31.56,14.23,46.78,1006.36,2029.99,3251.47,2943.72,3336.24,599.85,586.44,24.39,0000 0000 0000 0000 000000
2016-09-27 08:47:40,0.15,0.67,0.00,24.75,28.67,31.55,14.26,46.88,1006.36,2029.99,3248.52,2941.79,3334.10,600.20,586.74,24.44,0000 0000 0000 0000 000000
2016-09-27 08:52:42,0.08,0.68,0.00,24.75,28.67,31.55,14.26,46.89,1006.37,2029.99,3246.29,2940.36,3332.45,599.70,586.30,24.49,0000 0000 0000 0000 000000
2016-09-27 08:57:43,0.01,0.68,0.00,24.76,28.67,31.55,14.26,46.87,1006.38,2029.99,3245.55,2940.00,3332.00,599.88,586.48,24.54,0000 0000 0000 0000 000000
2016-09-27 09:02:44,0.00,0.68,0.00,24.77,28.66,31.53,14.22,46.94,1006.42,2029.99,3245.07,2939.98,3331.99,599.67,586.23,24.59,0000 0000 0000 0000 000000
2016-09-27 09:07:45,0.00,0.68,0.00,24.75,28.65,31.58,14.25,46.95,1006.55,2029.99,3245.04,2939.98,3331.99,599.91,586.59,24.64,0000 0000 0000 0000 000000
2016-09-27 09:12:47,0.00,0.68,0.00,24.73,28.65,31.56,14.30,46.92,1006.75,2029.99,3245.01,2939.96,3331.96,599.99,586.80,24.69,0000 0000 0000 0000 000000
2016-09-27 09:17:48,0.00,0.68,0.00,24.72,28.65,31.56,14.28,46.91,1006.79,2029.99,3245.00,2939.92,3331.96,600.24,587.15,24.74,0000 0000 0000 0000 000000
2016-09-27 09:22:50,0.00,0.68,0.00,24.73,28.65,31.57,14.25,46.91,1006.82,2029.99,3245.00,2939.95,3331.91,599.88,586.74,24.79,0000 0000 0000 0000 000000
2016-09-27 09:27:51,0.00,0.68,0.00,24.71,28.65,31.56,14.24,46.89,1006.83,2029.99,3245.00,2939.90,3331.60,599.87,586.83,24.84,0000 0000 0000 0000 000000
2016-09-27 09:32:52,-0.00,0.68,0.00,24.76,28.65,31.56,14.34,46.98,1006.84,2029.99,3245.00,2939.90,3331.49,599.97,586.91,24.89,0000 0000 0000 0000 000000
2016-09-27 09:37:53,-0.00,0.68,0.00,24.75,28.65,31.55,14.28,47.03,1006.85,2029.99,3245.00,2939.97,3331.69,600.11,586.95,24.94,0000 0000 0000 0000 000000
2016-09-27 09:42:55,0.00,0.68,0.00,24.75,28.65,31.56,14.25,47.01,1006.85,2029.99,3245.00,2939.98,3331.58,599.97,586.91,24.99,0000 0000 0000 0000 000000
2016-09-27 09:47:56,0.00,0.68,0.00,24.74,28.65,31.55,14.26,46.99,1006.85,2029.99,3245.00,2939.97,3331.24,599.94,586.76,25.04,0000 0000 0000 0000 000000
2016-09-27 09:52:57,0.00,0.68,0.00,24.73,28.64,31.52,14.28,47.02,1006.87,2029.99,3244.99,2939.98,3331.13,599.95,586.85,25.09,0000 0000 0000 0000 000000
2016-09-27 09:57:58,0.00,0.68,0.00,24.76,28.63,31.53,14.24,47.03,1006.92,2029.99,3244.99,2939.98,3331.12,599.90,586.76,25.14,0000 0000 0000 0000 000000
2016-09-27 10:03:00,0.00,0.68,0.00,24.75,28.63,31.55,14.20,47.01,1007.22,2029.99,3244.99,2939.98,3331.11,599.80,586.75,25.19,0000 0000 0000 0000 000000
2016-09-27 10:08:01,-0.00,0.68,0.00,24.76,28.62,31.56,14.29,47.04,1007.31,2029.99,3244.98,2939.98,3331.11,600.07,587.15,25.24,0000 0000 0000 0000 000000
2016-09-27 10:13:02,0.00,0.68,0.00,24.79,28.62,31.54,14.27,47.01,1007.33,2029.99,3244.97,2939.98,3331.03,600.02,587.19,25.30,0000 0000 0000 0000 000000
2016-09-27 10:18:04,0.00,0.68,0.00,24.77,28.62,31.54,14.29,46.98,1007.34,2029.99,3244.76,2939.94,3331.03,599.96,587.05,25.35,0000 0000 0000 0000 000000
2016-09-27 10:23:05,0.01,0.68,0.00,24.75,28.62,31.52,14.31,47.01,1007.34,2030.02,3244.10,2939.83,3331.01,600.09,587.24,25.40,0000 0000 0000 0000 000000
2016-09-27 10:28:06,-0.00,0.68,0.00,24.77,28.62,31.54,14.27,46.94,1007.34,2030.00,3244.05,2939.77,3331.00,599.78,586.93,25.45,0000 0000 0000 0000 000000
2016-09-27 10:33:07,0.00,0.68,0.00,24.77,28.62,31.54,14.28,46.94,1007.34,2030.00,3244.01,2939.57,3331.00,600.24,587.38,25.50,0000 0000 0000 0000 000000
2016-09-27 10:38:08,0.00,0.68,0.00,24.76,28.62,31.53,14.27,46.86,1007.34,2030.00,3244.03,2939.64,3330.99,600.17,587.27,25.55,0000 0000 0000 0000 000000
2016-09-27 10:43:10,0.00,0.68,0.00,24.74,28.62,31.54,14.22,46.88,1007.35,2030.01,3244.02,2939.68,3330.99,599.85,587.09,25.60,0000 0000 0000 0000 000000
2016-09-27 10:48:11,-0.00,0.68,0.00,24.74,28.62,31.53,14.30,46.92,1007.36,2030.00,3244.01,2939.76,3330.99,600.14,587.28,25.65,0000 0000 0000 0000 000000
2016-09-27 10:53:12,0.00,0.68,0.00,24.75,28.62,31.54,14.36,46.89,1007.40,2030.00,3244.00,2939.83,3330.98,600.19,587.37,25.70,0000 0000 0000 0000 000000
2016-09-27 10:58:13,-0.00,0.68,0.00,24.76,28.62,31.51,14.25,46.92,1007.38,2030.01,3244.01,2939.84,3330.98,600.08,587.19,25.75,0000 0000 0000 0000 000000
2016-09-27 11:03:15,0.01,0.68,0.00,24.77,28.62,31.52,14.29,47.01,1007.39,2030.00,3243.99,2939.60,3330.93,600.11,587.20,25.80,0000 0000 0000 0000 000000
2016-09-27 11:08:16,0.00,0.68,0.00,24.77,28.61,31.52,14.32,46.98,1007.52,2030.00,3243.98,2939.52,3330.69,599.93,587.09,25.85,0000 0000 0000 0000 000000
2016-09-27 11:13:17,0.03,0.68,0.00,24.75,28.61,31.54,14.35,47.01,1007.51,2030.00,3243.69,2939.40,3330.17,599.90,587.15,25.90,0000 0000 0000 0000 000000
2016-09-27 11:18:18,0.01,0.68,0.00,24.75,28.60,31.53,14.24,46.92,1007.53,2030.00,3242.99,2939.01,3329.98,599.83,587.09,25.95,0000 0000 0000 0000 000000
2016-09-27 11:23:20,0.00,0.68,0.00,24.78,28.60,31.54,14.27,46.90,1007.53,2030.00,3242.90,2939.00,3329.95,600.17,587.36,26.00,0000 0000 0000 0000 000000
2016-09-27 11:28:21,0.01,0.68,0.00,24.74,28.60,31.52,14.34,46.98,1007.78,2030.01,3242.63,2939.00,3329.94,599.90,587.32,26.05,0000 0000 0000 0000 000000
2016-09-27 11:33:22,0.02,0.69,0.00,24.73,28.60,31.51,14.31,46.94,1007.83,2030.03,3242.03,2938.96,3329.49,599.71,587.17,26.10,0000 0000 0000 0000 000000
2016-09-27 11:38:23,0.00,0.69,0.00,24.76,28.60,31.51,14.31,46.88,1007.83,2030.04,3242.01,2938.96,3329.19,600.25,587.64,26.15,0000 0000 0000 0000 000000
2016-09-27 11:43:25,0.00,0.69,0.00,24.75,28.60,31.55,14.25,46.91,1007.83,2030.02,3242.00,2938.95,3329.06,599.91,587.45,26.20,0000 0000 0000 0000 000000
2016-09-27 11:48:26,-0.00,0.69,0.00,24.77,28.60,31.52,14.34,46.97,1007.83,2030.01,3242.00,2938.93,3329.04,600.19,587.50,26.25,0000 0000 0000 0000 000000
2016-09-27 11:53:27,0.00,0.69,0.00,24.74,28.60,31.53,14.25,46.98,1007.83,2030.01,3241.96,2938.80,3329.01,600.12,587.50,26.30,0000 0000 0000 0000 000000
2016-09-27 11:58:28,0.00,0.69,0.00,24.78,28.60,31.56,14.29,46.93,1007.83,2030.02,3241.96,2938.65,3329.00,599.90,587.26,26.35,0000 0000 0000 0000 000000
2016-09-27 12:03:30,0.01,0.69,0.00,24.75,28.60,31.55,14.26,47.01,1007.84,2030.05,3241.77,2938.53,3329.00,599.63,587.05,26.40,0000 0000 0000 0000 000000
2016-09-27 12:08:31,0.01,0.69,0.00,24.75,28.60,31.56,14.30,46.91,1007.83,2030.03,3241.51,2938.32,3328.99,599.93,587.42,26.45,0000 0000 0000 0000 000000
2016-09-27 12:13:32,0.01,0.69,0.00,24.75,28.60,31.54,14.25,46.97,1007.83,2030.03,3241.07,2938.09,3328.90,599.79,587.18,26.50,0000 0000 0000 0000 000000
2016-09-27 12:18:33,0.01,0.69,0.00,24.78,28.60,31.54,14.22,47.03,1007.84,2030.05,3240.99,2938.00,3328.32,599.78,587.21,26.55,0000 0000 0000 0000 000000
2016-09-27 12:23:35,-0.00,0.69,0.00,24.77,28.60,31.55,14.25,46.96,1007.85,2030.06,3240.98,2938.01,3328.14,599.82,587.23,26.60,0000 0000 0000 0000 000000
2016-09-27 12:28:36,0.01,0.69,0.00,24.73,28.60,31.56,14.40,47.07,1008.01,2030.06,3240.77,2938.01,3328.04,600.47,587.82,26.65,0000 0000 0000 0000 000000
2016-09-27 12:33:37,-0.00,0.69,0.00,24.72,28.60,31.54,14.28,46.90,1008.27,2030.07,3240.51,2938.00,3328.00,600.11,587.72,26.70,0000 0000 0000 0000 000000
2016-09-27 12:38:39,0.00,0.69,0.00,24.70,28.60,31.52,14.28,46.93,1008.31,2030.08,3240.39,2938.00,3328.01,600.11,587.91,26.75,0000 0000 0000 0000 000000
2016-09-27 12:43:40,0.00,0.69,0.00,24.73,28.60,31.54,14.35,47.02,1008.31,2030.06,3240.17,2938.00,3328.01,600.04,587.72,26.80,0000 0000 0000 0000 000000
2016-09-27 12:48:41,-0.00,0.69,0.00,24.75,28.60,31.56,14.22,46.96,1008.31,2030.03,3240.08,2938.00,3328.00,599.44,587.19,26.85,0000 0000 0000 0000 000000
2016-09-27 12:53:42,0.00,0.69,0.00,24.73,28.60,31.54,14.26,46.89,1008.32,2030.05,3240.00,2937.99,3327.98,599.98,587.71,26.90,0000 0000 0000 0000 000000